[[{"header":{"parameterUnit":"m.s-1","parameterCategory":1,"la1":30.2991,"la2":30.254,"lo1":-89.0895,"lo2":-89.0444,"dy":0.0017,"dx":0.0017,"nx":28,"ny":28,"refTime":"2024-10-19T21:00:00:Z","depth":0,"parameterNumber":2,"parameterNumberName":"U-component_of_WINDS"},"data":[0,0,0,0,0,0,0,0,0,0,0,0,0,0,0,0,0,0,0,0,0,0,0,0,0,0,0,0,0,0,0,0,0,0,0,0,0,0,0,0,0,0,0,0,0,0,0,0,0,0,0,0,0,0,0,0,0,0,-4.3756,-4.3757,0,-4.3828,-4.3828,-4.3829,-4.3731,-4.3727,-4.3723,-4.372,-4.3796,-4.3801,-4.3806,0,0,0,0,0,0,0,0,0,0,0,0,0,-4.3536,-4.354,-4.3756,-4.3757,-4.3758,-4.3827,-4.3828,-4.3829,-4.3731,-4.3727,-4.3723,-4.3719,-4.3794,-4.38,-4.3807,0,0,0,0,0,0,0,0,0,0,0,0,0,-4.3622,-4.3542,-4.3756,-4.3717,-4.3714,-4.3827,-4.3828,-4.383,-4.3732,-4.3727,-4.3721,-4.3717,-4.3792,-4.38,-4.3808,-4.3963,0,0,-4.3832,-4.3835,0,0,0,0,0,0,0,0,-4.3617,-4.363,-4.3722,-4.372,-4.3717,-4.3765,-4.3778,-4.3874,-4.3733,-4.3725,-4.372,-4.3714,-4.379,-4.3798,-4.3823,-4.3966,-4.3969,-4.3833,-4.3837,-4.3841,-4.3843,0,0,0,0,0,0,0,-4.3611,-4.3627,-4.3784,-4.3723,-4.372,-4.3697,-4.3703,-4.3796,-4.3787,-4.3726,-4.3719,-4.3728,-4.3788,-4.3815,-4.3824,-4.397,-4.3832,-4.3839,-4.3844,-4.3847,-4.4246,-4.4251,0,0,0,0,0,0,-4.361,-4.3622,-4.3782,-4.3786,-4.3653,-4.3705,-4.3712,-4.3755,-4.3785,-4.3785,-4.3733,-4.3724,-4.3804,-4.3815,-4.3826,-4.4011,-4.3841,-4.3848,-4.3853,-4.424,-4.4247,-4.4253,0,0,0,0,0,0,-4.3605,-4.3625,-4.3779,-4.3702,-4.372,-4.3714,-4.3763,-4.3759,-4.3787,-4.3791,-4.3789,-4.3763,-4.3801,-4.3815,-4.3929,-4.4012,-4.3852,-4.3859,-4.4233,-4.4242,-4.425,-4.4381,0,0,0,0,0,0,-4.36,-4.3624,-4.3682,-4.3704,-4.3725,-4.3881,-4.3768,-4.3764,-4.38,-4.3789,-4.3818,-4.3818,-4.3798,-4.3918,-4.3937,-4.402,-4.3865,-4.4226,-4.4237,-4.4247,-4.437,-4.4393,-4.4414,0,0,0,0,0,-4.3592,-4.3717,-4.3686,-4.3706,-4.3798,-4.3886,-4.3898,-4.3871,-4.3807,-4.3867,-4.3869,-4.3817,-4.3999,-4.3931,-4.3952,-4.4038,-4.422,-4.4234,-4.4247,-4.436,-4.4389,-4.4413,0,0,0,0,0,0,-4.3705,-4.3719,-4.3685,-4.382,-4.3853,-4.3869,-4.3943,-4.3902,-4.3954,-4.3941,-4.3906,-4.3914,-4.4037,-4.4048,-4.3971,-4.419,-4.41,-4.4117,-4.4178,-4.4206,-4.4228,-4.4223,-4.3872,0,0,0,0,0,-4.3746,-4.3816,-4.3824,-4.3943,-4.3961,-4.395,-4.3987,-4.3963,-4.3996,-4.4009,-4.402,-4.4054,-4.4119,-4.4163,-4.4223,-4.437,-4.4376,-4.444,-4.4462,-4.448,-4.4496,-4.4577,-4.4606,-4.4296,-4.4296,-4.4296,0,0,-4.3831,-4.3847,-4.3893,-4.3966,-4.3988,-4.4063,-4.3962,-4.4044,-4.4099,-4.4022,-4.4131,-4.414,-4.4176,-4.4308,-4.4367,-4.4322,-4.4583,-4.4496,-4.4511,-4.4518,-4.4593,-4.4623,-4.4649,-4.4305,-4.4304,-4.4302,0,0,-4.4024,-4.4042,-4.4144,-4.4168,-4.4203,-4.4195,-4.4219,-4.4242,-4.4245,-4.4354,-4.4298,-4.4363,-4.4475,-4.4503,-4.4532,-4.4736,-4.4691,-4.4756,-4.4873,-4.4951,-4.4976,-4.4997,-4.5072,-4.5099,-4.4772,-4.4773,-4.4773,0,-4.4125,-4.4234,-4.4201,-4.4288,-4.4323,-4.4255,-4.4358,-4.4383,-4.4437,-4.4462,-4.441,-4.4551,-4.457,-4.4708,-4.4758,-4.4783,-4.4811,-4.4754,-4.4975,-4.4996,-4.5016,-4.5086,-4.5114,-4.4781,-4.478,-4.4779,-4.4778,0,-4.4358,-4.4435,-4.4513,-4.4566,-4.4608,-4.4703,-4.4685,-4.4732,-4.4705,-4.4702,-4.4815,-4.4835,-4.4898,-4.4929,-4.4903,-4.5065,-4.5036,-4.498,-4.4889,-4.5054,-4.512,-4.5146,-4.4792,-4.4789,-4.4787,-4.4785,0,0,-4.4626,-4.4659,-4.4689,-4.4712,-4.4745,-4.4805,-4.4896,-4.4958,-4.5,-4.5038,-4.5116,-4.5212,-4.5161,-4.5194,-4.517,-4.5239,-4.5402,-4.5175,-4.5176,-4.5218,-4.5583,-4.5626,-4.5658,-4.5371,-4.5376,-4.538,-4.5581,0,-4.4821,-4.4979,-4.4952,-4.5107,-4.5178,-4.5114,-4.5194,-4.5224,-4.5224,-4.5285,-4.5284,-4.5354,-4.528,-4.53,-4.5365,-4.5368,-4.5475,-4.5353,-4.5444,-4.5448,-4.544,-4.5692,-4.5738,-4.5927,-4.5606,-4.561,-4.5613,0,-4.5069,-4.5117,-4.5278,-4.5301,-4.533,-4.5403,-4.5457,-4.5515,-4.5548,-4.5543,-4.558,-4.5544,-4.5637,-4.5543,-4.5671,-4.5588,-4.5624,-4.5631,-4.5638,-4.5647,-4.5542,-4.5711,-4.5986,-4.6015,-4.5653,-4.565,-4.5647,0,-4.5251,-4.5355,-4.5466,-4.5487,-4.5516,-4.5569,-4.5584,-4.5611,-4.565,-4.5697,-4.5723,-4.5781,-4.5813,-4.5859,-4.584,-4.5773,-4.5973,-4.5876,-4.5973,-4.5974,-4.602,-4.6018,-4.6307,-4.6039,-4.6039,-4.6038,-4.6038,0,-4.5472,-4.5574,-4.5548,-4.5616,-4.5729,-4.5696,-4.5809,-4.5816,-4.5841,-4.591,-4.5858,-4.5924,-4.5893,-4.5958,-4.5943,-4.6053,-4.6067,-4.6067,-4.6062,-4.6073,-4.6073,-4.6097,-4.6085,-4.6046,-4.6044,-4.6043,-4.6041,0,-4.5695,-4.5682,-4.5798,-4.5816,-4.5822,-4.5905,-4.592,-4.5985,-4.598,-4.6068,-4.6087,-4.608,-4.6153,-4.6138,-4.6219,-4.6209,-4.6347,-4.6325,-4.6336,-4.6332,-4.643,-4.6422,-4.6747,-4.6788,-4.6492,-4.6494,-4.6497,0,-4.5838,-4.5915,-4.5941,-4.5983,-4.6002,-4.6071,-4.611,-4.6081,-4.6125,-4.6168,-4.6227,-4.6295,-4.6349,-4.6469,-4.6472,-4.6533,-4.6513,-4.6623,-4.6522,-4.6531,-4.6518,-4.6514,-4.6523,-4.6644,-4.6647,-4.665,-4.6652,0,-4.6095,-4.6084,-4.6143,-4.62,-4.6248,-4.6291,-4.633,-4.6367,-4.6342,-4.6393,-4.6467,-4.6508,-4.659,-4.6659,-4.6716,-4.6732,-4.6689,-4.6683,-4.6709,-4.6722,-4.6727,-4.6728,-4.6393,-4.6677,-4.6674,-4.6672,-4.6671,-4.667,-4.6284,-4.635,-4.6378,-4.6446,-4.6471,-4.6508,-4.657,-4.6573,-4.6634,-4.6698,-4.6677,-4.6762,-4.6793,-4.6865,-4.6887,-4.6953,-4.6912,-4.695,-4.6959,-4.697,-4.6983,-4.6714,-4.6963,-4.6963,-4.6962,-4.6961,-4.6961,0,-4.6539,-4.6554,-4.6616,-4.6672,-4.6725,-4.6678,-4.6718,-4.6766,-4.6841,-4.6873,-4.6926,-4.7012,-4.7079,-4.7087,-4.715,-4.7202,-4.7184,-4.722,-4.7217,-4.7221,-4.7015,-4.6987,-4.7233,-4.7233,-4.7233,-4.7233,-4.7233,-4.7233,-4.6679,-4.6788,-4.6781,-4.6903,-4.6917,-4.7,-4.7027,-4.7061,-4.7087,-4.7184,-4.7239,-4.7243,-4.7266,-4.7331,-4.739,-4.7391,-4.7418,-4.7462,-4.7455,-4.7263,-4.7236,-4.721,-4.7184,-4.7467,-4.7468,-4.7657,-4.7658,-4.766]},{"header":{"parameterUnit":"m.s-1","parameterCategory":1,"la1":30.2991,"la2":30.254,"lo1":-89.0895,"lo2":-89.0444,"dy":0.0017,"dx":0.0017,"nx":28,"ny":28,"refTime":"2024-10-19T21:00:00:Z","depth":0,"parameterNumber":3,"parameterNumberName":"V-component_of_WINDS"},"data":[0,0,0,0,0,0,0,0,0,0,0,0,0,0,0,0,0,0,0,0,0,0,0,0,0,0,0,0,0,0,0,0,0,0,0,0,0,0,0,0,0,0,0,0,0,0,0,0,0,0,0,0,0,0,0,0,0,0,-4.1334,-4.1334,0,-4.134,-4.134,-4.1341,-4.1268,-4.1266,-4.1264,-4.1262,-4.1268,-4.127,-4.1272,0,0,0,0,0,0,0,0,0,0,0,0,0,-4.1257,-4.1259,-4.1334,-4.1334,-4.1334,-4.134,-4.134,-4.1341,-4.1268,-4.1266,-4.1263,-4.1261,-4.1267,-4.1269,-4.1272,0,0,0,0,0,0,0,0,0,0,0,0,0,-4.128,-4.1259,-4.1334,-4.1299,-4.1296,-4.134,-4.134,-4.1341,-4.1268,-4.1265,-4.1262,-4.126,-4.1266,-4.1269,-4.1272,-4.1351,0,0,-4.1282,-4.1283,0,0,0,0,0,0,0,0,-4.1279,-4.1283,-4.1304,-4.1301,-4.1298,-4.13,-4.1315,-4.1344,-4.1269,-4.1279,-4.1262,-4.1258,-4.1281,-4.1283,-4.129,-4.1351,-4.1352,-4.1282,-4.1284,-4.1285,-4.1286,0,0,0,0,0,0,0,-4.1277,-4.1282,-4.1336,-4.1304,-4.1301,-4.1282,-4.1282,-4.1321,-4.1297,-4.1278,-4.1272,-4.1274,-4.1279,-4.1288,-4.129,-4.1352,-4.1282,-4.1284,-4.1286,-4.1287,-4.1476,-4.148,0,0,0,0,0,0,-4.128,-4.1281,-4.1336,-4.1337,-4.1281,-4.1286,-4.1286,-4.1302,-4.1296,-4.1292,-4.1277,-4.1271,-4.1284,-4.1286,-4.129,-4.1381,-4.1285,-4.1288,-4.129,-4.1473,-4.1477,-4.1481,0,0,0,0,0,0,-4.1279,-4.1286,-4.1336,-4.1307,-4.1312,-4.129,-4.131,-4.1304,-4.1313,-4.1295,-4.129,-4.129,-4.1282,-4.1286,-4.1336,-4.1381,-4.1289,-4.1292,-4.147,-4.1475,-4.1479,-4.1565,0,0,0,0,0,0,-4.1277,-4.1286,-4.1316,-4.1309,-4.1314,-4.1383,-4.1312,-4.1306,-4.1318,-4.1311,-4.1307,-4.1303,-4.128,-4.1332,-4.1339,-4.1383,-4.1294,-4.1465,-4.1472,-4.1477,-4.1558,-4.1572,-4.1585,0,0,0,0,0,-4.1275,-4.134,-4.1318,-4.1325,-4.1352,-4.1386,-4.1389,-4.136,-4.1322,-4.1352,-4.1341,-4.1303,-4.1374,-4.1338,-4.1345,-4.1391,-4.1463,-4.147,-4.1477,-4.1553,-4.157,-4.1584,0,0,0,0,0,0,-4.1354,-4.1339,-4.1314,-4.1379,-4.1384,-4.1373,-4.141,-4.138,-4.1395,-4.1388,-4.1351,-4.1351,-4.1407,-4.1404,-4.1363,-4.1466,-4.1412,-4.1421,-4.1467,-4.1483,-4.1496,-4.1496,-4.1297,0,0,0,0,0,-4.1379,-4.1408,-4.1393,-4.1452,-4.1456,-4.1433,-4.1447,-4.1424,-4.1428,-4.143,-4.1422,-4.1427,-4.145,-4.1466,-4.1486,-4.1557,-4.1555,-4.1592,-4.1605,-4.1616,-4.1624,-4.1661,-4.1677,-4.1504,-4.1504,-4.1504,0,0,-4.1431,-4.1426,-4.1447,-4.1468,-4.1469,-4.15,-4.1435,-4.1471,-4.1493,-4.1435,-4.1482,-4.1477,-4.1479,-4.154,-4.1567,-4.1539,-4.1671,-4.1625,-4.1634,-4.1636,-4.167,-4.1686,-4.1701,-4.1509,-4.1508,-4.1508,0,0,-4.1542,-4.1541,-4.159,-4.1593,-4.1595,-4.1579,-4.1591,-4.1584,-4.1578,-4.1625,-4.1582,-4.1608,-4.1649,-4.1652,-4.166,-4.177,-4.1737,-4.1778,-4.1846,-4.1883,-4.1896,-4.1908,-4.1948,-4.1962,-4.1786,-4.1786,-4.1787,0,-4.1606,-4.1651,-4.1619,-4.1657,-4.1668,-4.1616,-4.1665,-4.1669,-4.1678,-4.1686,-4.1655,-4.1704,-4.1703,-4.1764,-4.1791,-4.1798,-4.181,-4.1779,-4.1897,-4.1908,-4.1919,-4.1956,-4.1971,-4.1791,-4.1791,-4.179,-4.179,0,-4.173,-4.1762,-4.1801,-4.1811,-4.1825,-4.1869,-4.1843,-4.1861,-4.1837,-4.1824,-4.1872,-4.1868,-4.1886,-4.1899,-4.1876,-4.1957,-4.1939,-4.1903,-4.1848,-4.1941,-4.1976,-4.199,-4.1799,-4.1797,-4.1795,-4.1794,0,0,-4.1893,-4.1883,-4.1898,-4.1902,-4.19,-4.1924,-4.1964,-4.1982,-4.1999,-4.2006,-4.2039,-4.2075,-4.2041,-4.2049,-4.2026,-4.2057,-4.2145,-4.2017,-4.2016,-4.2041,-4.2234,-4.2262,-4.2279,-4.2123,-4.2125,-4.2127,-4.2234,0,-4.2001,-4.207,-4.2041,-4.2113,-4.2141,-4.2092,-4.2127,-4.213,-4.2119,-4.2141,-4.2128,-4.2154,-4.2107,-4.2111,-4.2141,-4.2129,-4.2184,-4.212,-4.2153,-4.2154,-4.2155,-4.2297,-4.2326,-4.2427,-4.2247,-4.2249,-4.2251,0,-4.2136,-4.2149,-4.2224,-4.2216,-4.2227,-4.2259,-4.2273,-4.2295,-4.2296,-4.2286,-4.2295,-4.2264,-4.2302,-4.2247,-4.23,-4.2257,-4.2268,-4.2264,-4.2268,-4.227,-4.2209,-4.2303,-4.2458,-4.2474,-4.2272,-4.227,-4.2268,0,-4.2248,-4.2283,-4.2332,-4.2337,-4.2329,-4.2353,-4.2351,-4.2349,-4.2362,-4.2373,-4.2381,-4.2397,-4.2406,-4.2419,-4.2394,-4.2355,-4.245,-4.2392,-4.2442,-4.2443,-4.2465,-4.2464,-4.2625,-4.2472,-4.2471,-4.2471,-4.2471,0,-4.2371,-4.2419,-4.2382,-4.2413,-4.2464,-4.243,-4.2482,-4.2474,-4.2473,-4.2501,-4.2459,-4.2485,-4.2449,-4.2473,-4.2452,-4.2499,-4.2503,-4.2496,-4.249,-4.25,-4.2501,-4.2508,-4.25,-4.2475,-4.2474,-4.2473,-4.2473,0,-4.2505,-4.2482,-4.2532,-4.2521,-4.2519,-4.2557,-4.2547,-4.2574,-4.2559,-4.2595,-4.2601,-4.2578,-4.2603,-4.2578,-4.2601,-4.2588,-4.265,-4.2634,-4.265,-4.2646,-4.2698,-4.2693,-4.2868,-4.289,-4.2723,-4.2724,-4.2726,0,-4.2586,-4.2621,-4.2613,-4.2629,-4.2629,-4.2654,-4.2666,-4.2634,-4.2648,-4.2652,-4.2679,-4.27,-4.2716,-4.2758,-4.2743,-4.276,-4.2744,-4.2804,-4.2747,-4.2756,-4.2746,-4.2744,-4.2748,-4.2817,-4.2819,-4.282,-4.2822,0,-4.2732,-4.2719,-4.2738,-4.2753,-4.2769,-4.2779,-4.2787,-4.2801,-4.2768,-4.2786,-4.2811,-4.2823,-4.2846,-4.2868,-4.2881,-4.2878,-4.2845,-4.284,-4.2852,-4.2863,-4.2871,-4.2868,-4.2683,-4.2836,-4.2835,-4.2834,-4.2833,-4.2832,-4.2842,-4.2871,-4.287,-4.2892,-4.2894,-4.2901,-4.2926,-4.2914,-4.2934,-4.2951,-4.293,-4.2961,-4.296,-4.2974,-4.2975,-4.2998,-4.2973,-4.2991,-4.2996,-4.3001,-4.3009,-4.2867,-4.3001,-4.3,-4.3,-4.2999,-4.2999,0,-4.2987,-4.2983,-4.3004,-4.3015,-4.3033,-4.2999,-4.3004,-4.3021,-4.3049,-4.3051,-4.3067,-4.3095,-4.3115,-4.3102,-4.3119,-4.314,-4.3126,-4.3146,-4.3145,-4.3145,-4.303,-4.3018,-4.3158,-4.3158,-4.3158,-4.3158,-4.3158,-4.3158,-4.3064,-4.3111,-4.3097,-4.3144,-4.314,-4.3169,-4.3176,-4.3182,-4.3184,-4.3217,-4.3234,-4.3224,-4.322,-4.3237,-4.3254,-4.3249,-4.3258,-4.3284,-4.3274,-4.3168,-4.3153,-4.3138,-4.3126,-4.3286,-4.3286,-4.3386,-4.3387,-4.3388]}]]